Time[GMT],current_speed[cm/s](2m),current_direction[angular_degrees](2m),temperature[C](2m),current_u[cm/s](2m),current_v[cm/s](2m)
2020-11-08 21:00,126.71,244.4,11.00,-114.31,-54.66
2020-11-08 22:00,13.20,186.1,11.00,-1.40,-13.12
2020-11-08 23:00,14.08,168.5,10.93,2.81,-13.80
2020-11-09 00:00,17.01,178.0,10.93,0.60,-17.00
2020-11-09 01:00,12.32,168.5,10.90,2.46,-12.07
2020-11-09 02:00,16.13,134.4,10.93,11.53,-11.28
2020-11-09 03:00,15.25,132.3,10.93,11.28,-10.26
2020-11-09 04:00,2.64,120.3,10.93,2.28,-1.33
2020-11-09 05:00,12.91,9.6,10.90,2.15,12.73
2020-11-09 06:00,15.84,23.6,10.90,6.35,14.51
2020-11-09 07:00,18.18,33.5,10.87,10.03,15.17
2020-11-09 08:00,12.91,11.3,10.90,2.54,12.65
2020-11-09 09:00,0.59,170.3,10.87,0.10,-0.58
2020-11-09 10:00,12.91,171.7,10.87,1.87,-12.77
2020-11-09 11:00,14.66,165.7,10.87,3.63,-14.21
2020-11-09 12:00,23.46,166.7,10.87,5.38,-22.84
2020-11-09 13:00,27.28,160.8,10.90,8.99,-25.75
2020-11-09 14:00,25.52,164.3,10.90,6.91,-24.56
2020-11-09 15:00,17.01,156.9,10.93,6.68,-15.65
2020-11-09 16:00,5.28,192.1,10.97,-1.10,-5.16
2020-11-09 17:00,9.68,352.3,10.97,-1.29,9.59
2020-11-09 18:00,18.48,12.4,10.97,3.96,18.05
2020-11-09 19:00,17.30,22.2,10.97,6.55,16.02
2020-11-09 20:00,16.72,38.8,10.93,10.47,13.04
2020-11-09 21:00,10.27,56.0,10.93,8.51,5.74
2020-11-09 22:00,3.52,133.3,10.93,2.56,-2.42
2020-11-09 23:00,13.49,153.0,10.90,6.12,-12.02
2020-11-10 00:00,21.41,159.4,10.90,7.55,-20.04
2020-11-10 01:00,21.12,166.7,10.90,4.84,-20.55
2020-11-10 02:00,20.53,156.5,10.93,8.17,-18.83
2020-11-10 03:00,17.30,150.2,10.93,8.60,-15.02
2020-11-10 04:00,10.85,109.1,10.90,10.26,-3.55
2020-11-10 05:00,16.13,51.1,10.87,12.55,10.14
2020-11-10 06:00,12.03,14.1,10.90,2.94,11.66
2020-11-10 07:00,21.12,20.8,10.87,7.51,19.74
2020-11-10 08:00,17.01,7.5,10.87,2.21,16.87
2020-11-10 09:00,13.20,353.8,10.84,-1.44,13.12
2020-11-10 10:00,5.87,352.3,10.81,-0.78,5.81
2020-11-10 11:00,0.59,102.4,10.81,0.57,-0.13
2020-11-10 12:00,8.21,163.2,10.81,2.37,-7.86
2020-11-10 13:00,16.13,167.1,10.84,3.60,-15.72
2020-11-10 14:00,14.66,182.2,10.87,-0.57,-14.65
2020-11-10 15:00,7.92,139.3,10.93,5.16,-6.00
2020-11-10 16:00,7.63,101.3,10.93,7.48,-1.50
2020-11-10 17:00,20.53,51.8,11.00,16.13,12.71
2020-11-10 18:00,21.41,46.8,10.93,15.62,14.65
2020-11-10 19:00,25.22,28.2,10.90,11.92,22.23
2020-11-10 20:00,25.22,13.4,10.87,5.86,24.53
2020-11-10 21:00,22.29,52.8,10.90,17.76,13.47
2020-11-10 22:00,21.12,35.6,10.90,12.29,17.17
2020-11-10 23:00,17.89,84.5,10.90,17.81,1.73
2020-11-11 00:00,19.65,114.3,10.90,17.90,-8.10
2020-11-11 01:00,21.70,141.4,10.84,13.53,-16.97
2020-11-11 02:00,17.01,164.3,10.78,4.61,-16.37
2020-11-11 03:00,22.58,161.5,10.84,7.18,-21.41
2020-11-11 04:00,19.06,150.6,10.87,9.37,-16.60
2020-11-11 05:00,16.42,130.2,10.84,12.55,-10.60
2020-11-11 06:00,9.09,109.8,10.87,8.56,-3.08
2020-11-11 07:00,12.03,40.5,10.84,7.81,9.14
2020-11-11 08:00,15.54,15.6,10.87,4.17,14.98
2020-11-11 09:00,21.12,358.0,10.84,-0.75,21.10
2020-11-11 10:00,20.82,25.0,10.84,8.82,18.87
2020-11-11 11:00,13.49,35.9,10.81,7.92,10.92
2020-11-11 12:00,7.33,102.7,10.84,7.15,-1.62
2020-11-11 13:00,4.69,167.8,10.84,0.99,-4.59
2020-11-11 14:00,12.03,140.4,10.84,7.67,-9.26
2020-11-11 15:00,16.13,148.5,10.90,8.44,-13.75
2020-11-11 16:00,12.32,136.1,10.90,8.53,-8.88
2020-11-11 17:00,19.94,110.1,10.90,18.73,-6.86
2020-11-11 18:00,20.24,76.0,10.93,19.64,4.89
2020-11-11 19:00,16.72,46.5,10.93,12.13,11.51
2020-11-11 20:00,17.89,47.9,10.93,13.27,12.00
2020-11-11 21:00,19.94,44.0,10.93,13.86,14.34
2020-11-11 22:00,17.89,17.7,10.93,5.43,17.05
2020-11-11 23:00,19.65,46.5,10.93,14.25,13.53
2020-11-12 00:00,16.13,102.7,10.90,15.73,-3.56
2020-11-12 01:00,17.60,117.5,10.90,15.61,-8.13
2020-11-12 02:00,20.53,161.1,10.90,6.65,-19.43
2020-11-12 03:00,26.69,141.8,10.90,16.51,-20.97
2020-11-12 04:00,17.30,150.6,10.87,8.50,-15.07
2020-11-12 05:00,16.13,127.7,10.87,12.76,-9.87
2020-11-12 06:00,14.96,95.0,10.84,14.90,-1.31
2020-11-12 07:00,21.70,67.2,10.87,20.01,8.40
2020-11-12 08:00,24.34,32.8,10.87,13.18,20.47
2020-11-12 09:00,31.09,19.8,10.87,10.52,29.26
2020-11-12 10:00,24.34,15.2,10.84,6.38,23.49
2020-11-12 11:00,25.22,2.2,10.84,0.96,25.21
2020-11-12 12:00,13.20,44.0,10.87,9.17,9.49
2020-11-12 13:00,9.09,154.4,10.87,3.92,-8.20
2020-11-12 14:00,11.15,181.2,10.87,-0.22,-11.14
2020-11-12 15:00,15.54,162.5,10.90,4.67,-14.83
2020-11-12 16:00,20.82,143.2,10.87,12.48,-16.67
2020-11-12 17:00,32.85,168.5,10.97,6.55,-32.19
2020-11-12 18:00,24.05,168.5,10.93,4.80,-23.57
2020-11-12 19:00,7.33,194.2,10.93,-1.79,-7.11
2020-11-12 20:00,7.63,3.2,10.93,0.43,7.61
2020-11-12 21:00,21.41,346.4,10.90,-5.05,20.81
2020-11-12 22:00,27.86,338.0,10.87,-10.45,25.83
2020-11-12 23:00,21.70,347.4,10.90,-4.73,21.18
2020-11-13 00:00,7.33,38.1,10.90,4.52,5.77
2020-11-13 01:00,8.51,197.7,10.87,-2.58,-8.10
2020-11-13 02:00,23.46,206.5,10.87,-10.46,-21.00
2020-11-13 03:00,21.12,205.8,10.87,-9.18,-19.02
2020-11-13 04:00,27.86,199.8,10.87,-9.43,-26.22
2020-11-13 05:00,26.40,178.0,10.84,0.93,-26.38
2020-11-13 06:00,18.77,197.3,10.81,-5.59,-17.92
2020-11-13 07:00,7.92,173.1,10.81,0.96,-7.86
2020-11-13 08:00,13.79,322.5,10.81,-8.39,10.94
2020-11-13 09:00,26.69,346.0,10.84,-6.45,25.90
2020-11-13 10:00,32.26,358.3,10.81,-0.94,32.25
2020-11-13 11:00,28.45,343.9,10.78,-7.89,27.34
2020-11-13 12:00,12.03,7.1,10.75,1.49,11.93
2020-11-13 13:00,7.04,349.9,10.75,-1.24,6.93
2020-11-13 14:00,3.81,222.6,10.71,-2.58,-2.80
2020-11-13 15:00,16.72,194.9,10.71,-4.29,-16.16
2020-11-13 16:00,22.58,190.3,10.75,-4.04,-22.22
2020-11-13 17:00,19.65,172.0,10.71,2.73,-19.46
2020-11-13 18:00,20.24,150.9,10.71,9.84,-17.69
2020-11-13 19:00,9.09,172.7,10.71,1.15,-9.02
2020-11-13 20:00,7.33,342.9,10.68,-2.16,7.01
2020-11-13 21:00,23.17,355.2,10.71,-1.96,23.09
2020-11-13 22:00,25.22,335.2,10.71,-10.60,22.89
2020-11-13 23:00,26.40,340.8,10.75,-8.69,24.93
2020-11-14 00:00,33.44,342.5,10.75,-10.05,31.89
2020-11-14 01:00,20.24,336.9,10.71,-7.94,18.62
2020-11-14 02:00,8.21,297.9,10.71,-7.26,3.84
2020-11-14 03:00,15.54,186.8,10.71,-1.84,-15.44
2020-11-14 04:00,23.46,184.0,10.71,-1.62,-23.41
2020-11-14 05:00,29.92,171.0,10.71,4.70,-29.54
2020-11-14 06:00,22.58,163.9,10.71,6.25,-21.70
2020-11-14 07:00,24.64,162.5,10.71,7.40,-23.50
2020-11-14 08:00,14.08,146.3,10.71,7.80,-11.72
2020-11-14 09:00,11.73,113.3,10.71,10.78,-4.64
2020-11-14 10:00,15.54,86.6,10.71,15.52,0.93
2020-11-14 11:00,8.80,62.0,10.68,7.77,4.14
2020-11-14 12:00,3.23,26.5,10.68,1.44,2.89
2020-11-14 13:00,4.99,217.7,10.68,-3.05,-3.94
2020-11-14 14:00,2.93,245.1,10.68,-2.66,-1.23
2020-11-14 15:00,21.12,195.9,10.68,-5.79,-20.31
2020-11-14 16:00,29.62,186.8,10.68,-3.50,-29.42
2020-11-14 17:00,29.92,170.3,10.68,5.06,-29.48
2020-11-14 18:00,36.08,156.5,10.65,14.36,-33.09
2020-11-14 19:00,26.40,148.1,10.65,13.95,-22.41
2020-11-14 20:00,23.46,108.0,10.65,22.31,-7.26
2020-11-14 21:00,16.72,73.9,10.65,16.06,4.63
2020-11-14 22:00,18.77,36.3,10.65,11.11,15.13
2020-11-14 23:00,28.16,36.3,10.65,16.67,22.69
2020-11-15 00:00,16.72,53.5,10.62,13.44,9.94
2020-11-15 01:00,12.03,88.3,10.62,12.02,0.35
2020-11-15 02:00,16.72,122.8,10.65,14.05,-9.05
2020-11-15 03:00,25.52,164.3,10.65,6.91,-24.56
2020-11-15 04:00,29.33,173.1,10.59,3.54,-29.12
2020-11-15 05:00,39.30,171.7,10.59,5.70,-38.89
2020-11-15 06:00,34.61,167.1,10.56,7.73,-33.73
2020-11-15 07:00,22.88,179.4,10.56,0.24,-22.88
2020-11-15 08:00,10.85,179.4,10.56,0.11,-10.85
2020-11-15 09:00,3.23,149.2,10.52,1.65,-2.77
2020-11-15 10:00,21.41,353.8,10.52,-2.33,21.28
2020-11-15 11:00,41.65,357.6,10.52,-1.73,41.61
2020-11-15 12:00,32.85,11.3,10.52,6.45,32.21
2020-11-15 13:00,43.41,40.5,10.59,28.20,33.00
2020-11-15 14:00,31.68,63.4,10.62,28.32,14.20
2020-11-15 15:00,23.46,68.3,10.65,21.80,8.68
2020-11-15 16:00,36.37,130.9,10.68,27.50,-23.80
2020-11-15 17:00,44.29,127.7,10.68,35.04,-27.09
2020-11-15 18:00,40.77,141.1,10.68,25.62,-31.72
2020-11-15 19:00,30.80,146.7,10.65,16.91,-25.74
2020-11-15 20:00,24.34,147.4,10.62,13.12,-20.51
2020-11-15 21:00,19.06,139.3,10.56,12.43,-14.46
2020-11-15 22:00,10.85,347.4,10.56,-2.36,10.59
2020-11-15 23:00,30.50,352.0,10.59,-4.25,30.21
2020-11-16 00:00,39.60,359.0,10.56,-0.67,39.59
2020-11-16 01:00,62.18,11.7,10.62,12.59,60.89
2020-11-16 02:00,57.78,3.9,10.71,3.98,57.64
2020-11-16 03:00,50.45,5.7,10.81,5.02,50.20
2020-11-16 04:00,46.05,1.8,10.78,1.48,46.02
2020-11-16 05:00,28.16,13.1,10.75,6.38,27.43
2020-11-16 06:00,24.05,46.5,10.71,17.44,16.56
2020-11-16 07:00,31.38,42.6,10.68,21.25,23.09
2020-11-16 08:00,47.22,64.1,10.65,42.47,20.65
2020-11-16 09:00,50.74,79.9,10.65,49.95,8.90
2020-11-16 10:00,49.86,85.5,10.52,49.71,3.90
2020-11-16 11:00,48.10,90.1,10.49,48.10,-0.08
2020-11-16 12:00,38.13,92.2,10.49,38.10,-1.46
2020-11-16 13:00,25.22,110.1,10.49,23.68,-8.68
2020-11-16 14:00,19.06,104.9,10.46,18.43,-4.89
2020-11-16 15:00,22.58,146.3,10.46,12.52,-18.80
2020-11-16 16:00,21.41,168.5,10.46,4.27,-20.98
2020-11-16 17:00,32.85,179.4,10.46,0.35,-32.85
2020-11-16 18:00,30.80,166.0,10.46,7.43,-29.89
2020-11-16 19:00,34.32,168.5,10.46,6.84,-33.63
2020-11-16 20:00,22.58,137.9,10.46,15.14,-16.76
2020-11-16 21:00,27.57,123.5,10.46,22.99,-15.21
2020-11-16 22:00,26.10,79.2,10.46,25.64,4.90
2020-11-16 23:00,35.78,67.6,10.46,33.08,13.64
2020-11-17 00:00,39.89,55.6,10.43,32.93,22.52
2020-11-17 01:00,46.05,54.6,10.43,37.52,26.69
2020-11-17 02:00,42.24,74.6,10.43,40.72,11.20
2020-11-17 03:00,35.78,64.4,10.40,32.28,15.45
2020-11-17 04:00,39.01,107.7,10.40,37.17,-11.84
2020-11-17 05:00,35.78,119.6,10.40,31.11,-17.69
2020-11-17 06:00,37.84,144.6,10.40,21.92,-30.84
2020-11-17 07:00,40.77,175.2,10.40,3.43,-40.62
2020-11-17 08:00,34.90,164.3,10.37,9.46,-33.60
2020-11-17 09:00,24.05,155.8,10.37,9.84,-21.94
2020-11-17 10:00,14.37,144.9,10.37,8.26,-11.76
2020-11-17 11:00,9.68,348.8,10.37,-1.88,9.50
2020-11-17 12:00,22.88,12.0,10.37,4.77,22.37
2020-11-17 13:00,33.73,9.9,10.33,5.81,33.22
2020-11-17 14:00,35.49,358.7,10.37,-0.82,35.48
2020-11-17 15:00,36.37,16.6,10.33,10.39,34.85
2020-11-17 16:00,23.76,56.0,10.37,19.69,13.29
2020-11-17 17:00,23.46,19.1,10.37,7.66,22.18
2020-11-17 18:00,24.34,112.9,10.37,22.42,-9.49
2020-11-17 19:00,29.62,137.6,10.33,19.99,-21.86
2020-11-17 20:00,25.81,145.6,10.30,14.57,-21.31
2020-11-17 21:00,34.32,141.4,10.33,21.40,-26.83
2020-11-17 22:00,34.32,135.4,10.30,24.08,-24.45
2020-11-17 23:00,13.49,150.9,10.30,6.56,-11.79
2020-11-18 00:00,12.32,95.0,10.30,12.27,-1.08
2020-11-18 01:00,8.51,9.2,10.30,1.36,8.40
2020-11-18 02:00,7.92,339.4,10.27,-2.79,7.41
2020-11-18 03:00,12.61,333.7,10.24,-5.58,11.31
2020-11-18 04:00,15.84,343.2,10.24,-4.58,15.16
2020-11-18 05:00,7.92,305.3,10.24,-6.47,4.57
2020-11-18 06:00,9.97,314.8,10.24,-7.08,7.02
2020-11-18 07:00,17.60,185.7,10.24,-1.76,-17.51
2020-11-18 08:00,16.13,182.2,10.21,-0.62,-16.12
2020-11-18 09:00,20.82,175.2,10.21,1.75,-20.75
2020-11-18 10:00,18.77,141.4,10.21,11.71,-14.67
2020-11-18 11:00,20.53,139.7,10.18,13.29,-15.65
2020-11-18 12:00,11.15,71.5,10.15,10.57,3.54
2020-11-18 13:00,22.88,57.7,10.18,19.35,12.21
2020-11-18 14:00,23.46,61.6,10.18,20.64,11.16
2020-11-18 15:00,17.89,89.7,10.15,17.89,0.08
2020-11-18 16:00,10.85,94.0,10.15,10.83,-0.75
2020-11-18 17:00,18.77,167.4,10.15,4.08,-18.32
2020-11-18 18:00,25.52,189.2,10.11,-4.10,-25.19
2020-11-18 19:00,29.92,184.3,10.11,-2.25,-29.83
2020-11-18 20:00,34.32,180.5,10.11,-0.27,-34.32
2020-11-18 21:00,33.44,175.2,10.08,2.81,-33.32
2020-11-18 22:00,20.53,178.0,10.08,0.72,-20.52
2020-11-18 23:00,16.42,146.7,10.08,9.02,-13.73
2020-11-19 00:00,7.33,37.0,10.08,4.41,5.86
2020-11-19 01:00,21.41,38.8,10.08,13.40,16.70
2020-11-19 02:00,22.88,75.7,10.05,22.17,5.66
2020-11-19 03:00,21.41,43.3,10.08,14.69,15.58
2020-11-19 04:00,11.15,25.7,10.08,4.84,10.04
2020-11-19 05:00,9.68,62.0,10.05,8.54,4.55
2020-11-19 06:00,5.57,65.8,10.05,5.08,2.28
2020-11-19 07:00,9.39,159.4,10.05,3.31,-8.78
2020-11-19 08:00,23.17,163.9,10.05,6.42,-22.26
2020-11-19 09:00,29.92,172.7,10.02,3.79,-29.68
2020-11-19 10:00,20.53,144.9,10.05,11.79,-16.81
2020-11-19 11:00,17.60,139.0,10.05,11.55,-13.27
2020-11-19 12:00,18.77,129.5,10.02,14.49,-11.93
2020-11-19 13:00,9.68,107.3,10.02,9.24,-2.88
2020-11-19 14:00,18.48,42.3,10.05,12.43,13.67
2020-11-19 15:00,23.17,30.3,10.05,11.70,20.00
2020-11-19 16:00,14.96,33.1,10.05,8.18,12.53
2020-11-19 17:00,8.51,30.0,10.02,4.25,7.37
2020-11-19 18:00,3.23,7.5,10.02,0.42,3.20
2020-11-19 19:00,8.51,120.3,10.02,7.34,-4.29
2020-11-19 20:00,18.18,114.0,10.02,16.61,-7.40
2020-11-19 21:00,22.88,137.9,10.02,15.34,-16.98
2020-11-19 22:00,32.26,128.4,10.02,25.28,-20.05
2020-11-19 23:00,28.45,129.8,9.99,21.85,-18.22
2020-11-20 00:00,27.57,91.5,9.99,27.56,-0.72
2020-11-20 01:00,26.10,74.6,9.99,25.17,6.92
2020-11-20 02:00,38.42,72.5,9.96,36.65,11.55
2020-11-20 03:00,47.22,70.0,9.92,44.39,16.11
2020-11-20 04:00,39.60,90.8,9.96,39.59,-0.55
2020-11-20 05:00,24.93,80.2,9.99,24.57,4.22
2020-11-20 06:00,24.34,93.6,9.99,24.30,-1.53
2020-11-20 07:00,27.86,128.8,9.99,21.73,-17.45
2020-11-20 08:00,23.46,136.9,9.99,16.05,-17.12
2020-11-20 09:00,26.98,149.2,9.96,13.83,-23.17
2020-11-20 10:00,31.09,146.3,9.96,17.23,-25.88
2020-11-20 11:00,27.28,140.7,9.92,17.27,-21.11
2020-11-20 12:00,16.13,126.7,9.96,12.94,-9.63
2020-11-20 13:00,18.48,117.9,9.96,16.34,-8.64
2020-11-20 14:00,18.77,64.4,9.92,16.93,8.10
2020-11-20 15:00,28.16,55.3,9.96,23.14,16.04
2020-11-20 16:00,34.32,47.5,9.96,25.32,23.16
2020-11-20 17:00,31.68,53.5,9.99,25.47,18.83
2020-11-20 18:00,28.74,89.4,10.02,28.74,0.31
2020-11-20 19:00,22.00,92.9,10.02,21.97,-1.11
2020-11-20 20:00,23.46,117.9,10.02,20.74,-10.97
2020-11-20 21:00,31.97,139.7,9.99,20.69,-24.37
2020-11-20 22:00,37.25,150.6,9.99,18.31,-32.44
2020-11-20 23:00,32.26,155.5,9.96,13.39,-29.36
2020-11-21 00:00,25.22,142.1,9.96,15.49,-19.91
2020-11-21 01:00,18.77,135.8,9.96,13.09,-13.46
2020-11-21 02:00,15.25,97.1,9.96,15.13,-1.89
2020-11-21 03:00,23.76,54.9,9.96,19.44,13.65
2020-11-21 04:00,29.92,45.8,9.96,21.44,20.86
2020-11-21 05:00,29.33,45.4,9.99,20.90,20.58
2020-11-21 06:00,26.40,50.4,9.99,20.33,16.84
2020-11-21 07:00,13.49,67.2,9.96,12.44,5.22
2020-11-21 08:00,14.66,55.6,9.92,12.11,8.28
2020-11-21 09:00,15.84,80.6,9.92,15.63,2.59
2020-11-21 10:00,20.53,126.3,9.92,16.55,-12.16
2020-11-21 11:00,24.05,144.9,9.92,13.82,-19.69
2020-11-21 12:00,20.53,140.4,9.92,13.10,-15.81
2020-11-21 13:00,18.48,135.1,9.96,13.04,-13.09
2020-11-21 14:00,7.92,123.8,9.96,6.58,-4.41
2020-11-21 15:00,15.25,48.6,9.96,11.44,10.09
2020-11-21 16:00,20.24,60.2,10.02,17.56,10.06
2020-11-21 17:00,28.16,53.5,10.02,22.64,16.74
2020-11-21 18:00,26.69,54.2,10.05,21.65,15.60
2020-11-21 19:00,19.94,78.8,10.05,19.57,3.86
2020-11-21 20:00,12.91,82.7,10.02,12.80,1.64
2020-11-21 21:00,12.32,135.1,9.99,8.70,-8.72
2020-11-21 22:00,13.20,152.3,9.96,6.13,-11.69
2020-11-21 23:00,22.88,176.2,9.92,1.50,-22.83
2020-11-22 00:00,23.76,184.3,9.92,-1.79,-23.69
2020-11-22 01:00,20.53,176.9,9.92,1.10,-20.50
2020-11-22 02:00,11.15,136.5,9.92,7.67,-8.08
2020-11-22 03:00,8.21,97.5,9.92,8.14,-1.07
2020-11-22 04:00,6.16,28.6,9.89,2.94,5.41
2020-11-22 05:00,8.21,358.0,9.89,-0.29,8.21
2020-11-22 06:00,11.73,45.4,9.92,8.36,8.23
2020-11-22 07:00,15.54,97.5,9.89,15.41,-2.02
2020-11-22 08:00,6.45,101.3,9.89,6.33,-1.27
2020-11-22 09:00,12.61,134.4,9.89,9.01,-8.82
2020-11-22 10:00,16.72,179.7,9.92,0.07,-16.72
2020-11-22 11:00,19.94,180.5,9.89,-0.16,-19.94
2020-11-22 12:00,10.27,197.7,9.89,-3.12,-9.78
2020-11-22 13:00,17.60,213.1,9.83,-9.62,-14.73
2020-11-22 14:00,14.08,178.7,9.86,0.32,-14.07
2020-11-22 15:00,4.69,190.6,9.86,-0.87,-4.61
2020-11-22 16:00,1.17,171.3,9.89,0.18,-1.16
2020-11-22 17:00,7.33,304.9,9.89,-6.01,4.20
2020-11-22 18:00,8.51,50.4,9.89,6.55,5.43
2020-11-22 19:00,7.04,47.5,9.89,5.19,4.75
2020-11-22 20:00,8.21,97.1,9.89,8.15,-1.02
2020-11-22 21:00,9.09,156.9,9.89,3.57,-8.36
2020-11-22 22:00,17.30,164.6,9.86,4.59,-16.69
2020-11-22 23:00,16.72,180.8,9.89,-0.23,-16.72
2020-11-23 00:00,21.70,180.5,9.86,-0.17,-21.70
2020-11-23 01:00,21.12,184.0,9.86,-1.46,-21.07
2020-11-23 02:00,12.32,185.7,9.86,-1.23,-12.26
2020-11-23 03:00,4.40,168.5,9.86,0.88,-4.31
2020-11-23 04:00,2.64,335.2,9.86,-1.11,2.40
2020-11-23 05:00,9.39,327.8,9.86,-5.01,7.94
2020-11-23 06:00,14.66,328.5,9.86,-7.67,12.50
2020-11-23 07:00,19.06,342.9,9.89,-5.62,18.22
2020-11-23 08:00,18.77,13.8,9.86,4.48,18.23
2020-11-23 09:00,15.25,47.2,9.89,11.19,10.36
2020-11-23 10:00,4.99,40.2,9.89,3.22,3.81
2020-11-23 11:00,2.05,139.0,9.89,1.35,-1.55
2020-11-23 12:00,6.75,157.6,9.89,2.57,-6.24
2020-11-23 13:00,6.75,134.4,9.89,4.82,-4.72
2020-11-23 14:00,6.16,124.5,9.89,5.07,-3.49
2020-11-23 15:00,8.21,80.9,9.89,8.11,1.29
2020-11-23 16:00,17.30,58.1,9.92,14.69,9.15
2020-11-23 17:00,30.80,57.4,9.96,25.94,16.60
2020-11-23 18:00,26.98,75.3,9.96,26.10,6.84
2020-11-23 19:00,24.05,53.2,9.96,19.25,14.42
2020-11-23 20:00,15.25,68.6,9.96,14.20,5.55
2020-11-23 21:00,19.06,88.0,9.96,19.05,0.67
2020-11-23 22:00,22.58,90.4,9.99,22.58,-0.17
2020-11-23 23:00,43.12,122.4,9.99,36.39,-23.13
2020-11-24 00:00,52.79,150.6,9.96,25.95,-45.98
2020-11-24 01:00,56.31,160.1,9.92,19.21,-52.94
2020-11-24 02:00,62.18,162.9,9.89,18.31,-59.42
2020-11-24 03:00,52.21,160.8,9.92,17.20,-49.29
2020-11-24 04:00,48.69,149.9,9.89,24.45,-42.11
2020-11-24 05:00,36.66,149.9,9.89,18.41,-31.71
2020-11-24 06:00,14.37,131.6,9.89,10.75,-9.54
2020-11-24 07:00,15.25,129.8,9.86,11.71,-9.77
2020-11-24 08:00,9.39,169.2,9.86,1.76,-9.22
2020-11-24 09:00,15.25,91.5,9.86,15.25,-0.40
2020-11-24 10:00,19.65,130.9,9.86,14.86,-12.86
2020-11-24 11:00,19.94,130.9,9.83,15.08,-13.05
2020-11-24 12:00,36.37,143.5,9.83,21.62,-29.25
2020-11-24 13:00,29.33,166.7,9.83,6.73,-28.55
2020-11-24 14:00,35.20,153.4,9.83,15.77,-31.46
2020-11-24 15:00,32.26,149.5,9.83,16.37,-27.80
2020-11-24 16:00,43.41,151.3,9.83,20.87,-38.06
2020-11-24 17:00,33.44,156.9,9.83,13.12,-30.75
2020-11-24 18:00,19.06,142.8,9.83,11.52,-15.19
2020-11-24 19:00,14.96,116.5,9.80,13.39,-6.66
2020-11-24 20:00,16.42,103.1,9.80,16.00,-3.72
2020-11-24 21:00,14.37,79.5,9.83,14.13,2.61
2020-11-24 22:00,6.45,178.7,9.80,0.15,-6.45
2020-11-24 23:00,11.44,179.7,9.80,0.05,-11.44
2020-11-25 00:00,11.73,154.8,9.80,5.00,-10.61
2020-11-25 01:00,29.04,181.5,9.77,-0.76,-29.03
2020-11-25 02:00,24.64,184.0,9.80,-1.70,-24.58
2020-11-25 03:00,21.70,186.8,9.77,-2.56,-21.55
2020-11-25 04:00,17.30,185.7,9.77,-1.73,-17.22
2020-11-25 05:00,7.33,182.9,9.77,-0.37,-7.32
2020-11-25 06:00,5.87,33.1,9.77,3.21,4.91
2020-11-25 07:00,18.48,51.8,9.77,14.51,11.44
2020-11-25 08:00,29.33,45.4,9.73,20.90,20.58
2020-11-25 09:00,22.58,40.2,9.70,14.57,17.26
2020-11-25 10:00,18.77,57.0,9.70,15.75,10.21
2020-11-25 11:00,15.25,70.8,9.70,14.40,5.03
2020-11-25 12:00,11.15,114.7,9.70,10.13,-4.66
2020-11-25 13:00,11.44,169.2,9.70,2.14,-11.24
2020-11-25 14:00,18.77,182.9,9.70,-0.95,-18.75
2020-11-25 15:00,18.18,179.4,9.70,0.19,-18.18
2020-11-25 16:00,13.79,192.1,9.70,-2.88,-13.48
2020-11-25 17:00,4.40,142.1,9.70,2.70,-3.47
2020-11-25 18:00,9.39,48.6,9.70,7.04,6.21
2020-11-25 19:00,16.42,7.5,9.70,2.13,16.29
2020-11-25 20:00,28.74,16.6,9.70,8.21,27.54
2020-11-25 21:00,31.38,19.4,9.70,10.43,29.60
2020-11-25 22:00,29.33,12.7,9.70,6.47,28.61
2020-11-25 23:00,19.06,353.4,9.70,-2.19,18.94
2020-11-26 00:00,17.30,57.7,9.70,14.63,9.24
2020-11-26 01:00,4.11,67.6,9.70,3.80,1.57
2020-11-26 02:00,9.68,108.0,9.70,9.20,-2.99
2020-11-26 03:00,11.73,155.1,9.70,4.93,-10.64
2020-11-26 04:00,24.34,152.3,9.70,11.31,-21.56
2020-11-26 05:00,21.70,154.1,9.70,9.49,-19.52
2020-11-26 06:00,17.60,127.7,9.70,13.92,-10.76
2020-11-26 07:00,15.84,127.0,9.70,12.65,-9.53
2020-11-26 08:00,10.56,140.4,9.70,6.73,-8.13
2020-11-26 09:00,6.45,126.3,9.70,5.20,-3.82
2020-11-26 10:00,5.57,188.5,9.70,-0.83,-5.51
2020-11-26 11:00,11.15,234.9,9.70,-9.12,-6.40
2020-11-26 12:00,17.01,228.3,9.70,-12.70,-11.32
2020-11-26 13:00,17.89,221.9,9.70,-11.96,-13.31
2020-11-26 14:00,15.54,231.8,9.70,-12.21,-9.62
2020-11-26 15:00,14.37,239.9,9.70,-12.43,-7.21
2020-11-26 16:00,10.27,234.6,9.73,-8.37,-5.95
2020-11-26 17:00,16.13,179.0,9.73,0.27,-16.13
2020-11-26 18:00,13.79,145.6,9.73,7.78,-11.38
2020-11-26 19:00,12.03,90.4,9.73,12.02,-0.09
2020-11-26 20:00,22.29,52.8,9.73,17.76,13.47
2020-11-26 21:00,33.73,39.8,9.77,21.60,25.91
2020-11-26 22:00,22.58,56.0,9.77,18.72,12.63
2020-11-26 23:00,21.70,65.8,9.80,19.80,8.89
2020-11-27 00:00,14.66,68.3,9.80,13.62,5.42
2020-11-27 01:00,22.29,120.3,9.80,19.24,-11.26
2020-11-27 02:00,12.91,148.8,9.80,6.68,-11.04
2020-11-27 03:00,21.12,160.4,9.80,7.08,-19.90
2020-11-27 04:00,20.53,164.3,9.80,5.56,-19.76
2020-11-27 05:00,11.15,165.3,9.80,2.82,-10.78
2020-11-27 06:00,24.05,144.6,9.80,13.94,-19.60
2020-11-27 07:00,18.48,149.5,9.80,9.38,-15.92
2020-11-27 08:00,8.51,136.9,9.80,5.82,-6.21
2020-11-27 09:00,11.73,89.7,9.80,11.73,0.05
2020-11-27 10:00,15.25,64.4,9.80,13.76,6.58
2020-11-27 11:00,17.60,108.4,9.77,16.70,-5.55
2020-11-27 12:00,15.54,116.5,9.77,13.92,-6.93
2020-11-27 13:00,18.77,133.0,9.77,13.73,-12.80
2020-11-27 14:00,28.74,156.9,9.77,11.28,-26.44
2020-11-27 15:00,30.50,169.9,9.80,5.35,-30.03
2020-11-27 16:00,37.84,178.0,9.80,1.33,-37.81
2020-11-27 17:00,42.53,168.5,9.80,8.48,-41.67
2020-11-27 18:00,37.84,173.8,9.83,4.11,-37.61
2020-11-27 19:00,26.40,167.8,9.83,5.58,-25.80
2020-11-27 20:00,11.44,172.7,9.83,1.45,-11.35
2020-11-27 21:00,5.57,92.6,9.83,5.57,-0.25
2020-11-27 22:00,11.15,17.7,9.80,3.38,10.62
2020-11-27 23:00,13.49,22.2,9.80,5.10,12.49
2020-11-28 00:00,9.39,20.8,9.80,3.34,8.77
2020-11-28 01:00,2.64,84.5,9.80,2.63,0.25
2020-11-28 02:00,10.27,130.5,9.80,7.80,-6.67
2020-11-28 03:00,20.53,155.1,9.80,8.63,-18.63
2020-11-28 04:00,24.34,159.0,9.80,8.72,-22.73
2020-11-28 05:00,29.04,160.8,9.77,9.57,-27.42
2020-11-28 06:00,31.68,163.9,9.77,8.77,-30.44
2020-11-28 07:00,20.24,175.9,9.77,1.45,-20.19
2020-11-28 08:00,9.39,198.7,9.77,-3.01,-8.89
2020-11-28 09:00,4.40,21.2,9.77,1.59,4.10
2020-11-28 10:00,12.32,326.4,9.77,-6.82,10.26
2020-11-28 11:00,21.41,359.0,9.77,-0.36,21.41
2020-11-28 12:00,9.97,358.7,9.77,-0.23,9.97
2020-11-28 13:00,4.40,19.1,9.80,1.44,4.16
2020-11-28 14:00,9.39,164.3,9.80,2.54,-9.03
2020-11-28 15:00,22.29,185.4,9.80,-2.09,-22.19
2020-11-28 16:00,24.93,165.7,9.83,6.16,-24.16
2020-11-28 17:00,25.81,180.1,9.83,-0.04,-25.81
2020-11-28 18:00,25.52,174.5,9.83,2.46,-25.40
2020-11-28 19:00,21.41,167.8,9.80,4.53,-20.93
2020-11-28 20:00,14.08,166.0,9.80,3.40,-13.66
2020-11-28 21:00,4.69,49.7,9.80,3.58,3.04
2020-11-28 22:00,22.29,23.3,9.80,8.81,20.48
2020-11-28 23:00,28.45,33.5,9.80,15.70,23.73
2020-11-29 00:00,21.12,47.5,9.80,15.58,14.25
2020-11-29 01:00,14.37,55.3,9.83,11.81,8.19
2020-11-29 02:00,6.75,109.4,9.80,6.36,-2.24
2020-11-29 03:00,15.54,157.2,9.80,6.01,-14.34
2020-11-29 04:00,25.22,165.7,9.77,6.24,-24.44
2020-11-29 05:00,29.92,167.4,9.77,6.50,-29.20
2020-11-29 06:00,28.45,168.8,9.77,5.50,-27.91
2020-11-29 07:00,28.45,161.1,9.77,9.21,-26.92
2020-11-29 08:00,15.84,153.4,9.77,7.10,-14.16
2020-11-29 09:00,12.03,135.8,9.73,8.38,-8.62
2020-11-29 10:00,12.03,36.6,9.73,7.18,9.65
2020-11-29 11:00,22.00,47.2,9.73,16.14,14.95
2020-11-29 12:00,21.70,57.0,9.73,18.21,11.81
2020-11-29 13:00,22.58,92.9,9.77,22.56,-1.14
2020-11-29 14:00,9.68,115.1,9.77,8.77,-4.10
2020-11-29 15:00,19.65,147.8,9.80,10.49,-16.62
2020-11-29 16:00,28.45,160.8,9.80,9.37,-26.86
2020-11-29 17:00,30.21,177.3,9.77,1.43,-30.18
2020-11-29 18:00,34.02,153.4,9.80,15.25,-30.42
2020-11-29 19:00,22.29,133.3,9.80,16.21,-15.30
2020-11-29 20:00,19.06,115.1,9.77,17.27,-8.07
2020-11-29 21:00,19.06,96.1,9.77,18.96,-2.01
2020-11-29 22:00,24.05,63.4,9.77,21.50,10.78
2020-11-29 23:00,31.09,45.1,9.77,22.02,21.95
2020-11-30 00:00,30.21,52.5,9.80,23.96,18.40
2020-11-30 01:00,23.46,59.9,9.77,20.29,11.78